Location: ??????
(38.1303°N, 24.0039°E)
Time: 06:44:46
(UTC+00:00)

Lacrosse 5 rocket - Pass Details

Date: 20 June 2021
Orbit: 459 x 634 km, 57.0° (Epoch: 23 July)

Event Time Altitude Azimuth Distance (km) Brightness Sun altitude
Rises 01:33:27 0° 329° (NNW) 2,494 4.9 -14.3°
Reaches altitude 10° 01:35:57 10° 347° (NNW) 1,629 4.2 -14.0°
Maximum altitude 01:38:46 21° 37° (NE) 1,134 4.0 -13.6°
Drops below altitude 10° 01:41:38 10° 88° (E) 1,672 4.5 -13.2°
Sets 01:44:15 0° 105° (ESE) 2,582 5.2 -12.8°
